Hourly Weather Suhoozernyy

Today, 26 January, Tuesday

Time Temperature Precipitation Wind Pressure Humidity
00:00 +3°C° 0 mm 1 mps 715 mmHg 62%
01:00 +3°C° 0 mm 1 mps 715 mmHg 60%
02:00 +4°C° 0 mm 1 mps 716 mmHg 58%
03:00 +3°C° 0 mm 2 mps 716 mmHg 58%
04:00 +4°C° 0 mm 1 mps 716 mmHg 58%
05:00 +4°C° 0 mm 1 mps 717 mmHg 58%
06:00 +4°C° 0 mm 1 mps 717 mmHg 58%
07:00 +4°C° 0 mm 1 mps 718 mmHg 59%
08:00 +4°C° 0 mm 1 mps 718 mmHg 61%
09:00 +5°C° 0 mm 1 mps 718 mmHg 63%
10:00 +6°C° 0 mm 1 mps 718 mmHg 65%
11:00 +7°C° 0 mm 1 mps 718 mmHg 67%
12:00 +7°C° 0 mm 1 mps 718 mmHg 69%
13:00 +6°C° 0 mm 2 mps 718 mmHg 70%
14:00 +6°C° 0 mm 2 mps 718 mmHg 71%
15:00 +5°C° 0 mm 3 mps 718 mmHg 71%
16:00 +5°C° 0 mm 3 mps 718 mmHg 71%
17:00 +4°C° 0 mm 3 mps 718 mmHg 71%
18:00 +3°C° 0 mm 4 mps 718 mmHg 71%
19:00 +3°C° 0 mm 3 mps 718 mmHg 72%
20:00 +3°C° 0 mm 3 mps 718 mmHg 73%
21:00 +4°C° 0 mm 2 mps 717 mmHg 73%
22:00 +4°C° 0 mm 2 mps 717 mmHg 72%
23:00 +3°C° 0 mm 2 mps 717 mmHg 70%

Tomorrow, 27 January, Wednesday

Time Temperature Precipitation Wind Pressure Humidity
00:00 +3°C° 0 mm 2 mps 717 mmHg 68%
01:00 +3°C° 0 mm 2 mps 717 mmHg 67%
02:00 +3°C° 0 mm 2 mps 716 mmHg 66%
03:00 +3°C° 0 mm 2 mps 716 mmHg 64%
04:00 +3°C° 0 mm 2 mps 715 mmHg 64%
05:00 +3°C° 0 mm 2 mps 715 mmHg 64%
06:00 +3°C° 0 mm 2 mps 715 mmHg 64%
07:00 +3°C° 0 mm 2 mps 714 mmHg 64%
08:00 +3°C° 0 mm 2 mps 714 mmHg 64%
09:00 +3°C° 0 mm 2 mps 714 mmHg 64%
10:00 +4°C° 0 mm 2 mps 713 mmHg 65%
11:00 +5°C° 0 mm 2 mps 713 mmHg 65%
12:00 +6°C° 0 mm 2 mps 712 mmHg 65%
13:00 +6°C° 0 mm 2 mps 712 mmHg 68%
14:00 +5°C° 0 mm 3 mps 711 mmHg 71%
15:00 +5°C° 0 mm 3 mps 710 mmHg 74%
16:00 +4°C° 0 mm 3 mps 710 mmHg 76%
17:00 +4°C° 0 mm 2 mps 710 mmHg 78%
18:00 +3°C° 0 mm 2 mps 710 mmHg 80%
19:00 +3°C° 0 mm 2 mps 710 mmHg 79%
20:00 +3°C° 0 mm 2 mps 710 mmHg 78%
21:00 +4°C° 0 mm 1 mps 710 mmHg 78%
22:00 +4°C° 0 mm 1 mps 710 mmHg 76%
23:00 +4°C° 0 mm 1 mps 709 mmHg 75%

Day after tomorrow, 28 January, Thursday

Time Temperature Precipitation Wind Pressure Humidity
00:00 +4°C° 0 mm 1 mps 709 mmHg 73%
01:00 +4°C° 0 mm 1 mps 709 mmHg 72%
02:00 +4°C° 0 mm 1 mps 709 mmHg 71%
03:00 +4°C° 0 mm 1 mps 708 mmHg 71%
04:00 +4°C° 0 mm 1 mps 708 mmHg 69%
05:00 +4°C° 0 mm 1 mps 708 mmHg 67%
06:00 +4°C° 0 mm 2 mps 708 mmHg 65%
07:00 +5°C° 0 mm 1 mps 708 mmHg 65%
08:00 +5°C° 0 mm 1 mps 708 mmHg 66%
09:00 +5°C° 0 mm 1 mps 708 mmHg 66%
10:00 +7°C° 0 mm 1 mps 708 mmHg 65%
11:00 +8°C° 0 mm 1 mps 708 mmHg 64%
12:00 +9°C° 0 mm 1 mps 708 mmHg 63%
13:00 +8°C° 0 mm 2 mps 708 mmHg 65%
14:00 +6°C° 0 mm 4 mps 708 mmHg 67%
15:00 +5°C° 0 mm 6 mps 708 mmHg 69%
16:00 +5°C° 0.1 mm 5 mps 708 mmHg 76%
17:00 +4°C° 0.1 mm 4 mps 709 mmHg 83%
18:00 +3°C° 0.1 mm 3 mps 709 mmHg 90%
19:00 +4°C° 0.6 mm 2 mps 709 mmHg 92%
20:00 +4°C° 0.6 mm 2 mps 710 mmHg 94%
21:00 +4°C° 0.6 mm 2 mps 710 mmHg 97%
22:00 +3°C° 0.5 mm 3 mps 710 mmHg 97%
23:00 +2°C° 0.5 mm 3 mps 710 mmHg 97%

29 January, Friday

Time Temperature Precipitation Wind Pressure Humidity
00:00 +1°C° 0.5 mm 4 mps 710 mmHg 97%
01:00 +1°C° 0.8 mm 4 mps 711 mmHg 97%
02:00 +1°C° 0.8 mm 4 mps 711 mmHg 96%
03:00 0°C° 0.8 mm 4 mps 712 mmHg 96%
04:00 +1°C° 0.2 mm 3 mps 712 mmHg 96%
05:00 +1°C° 0.2 mm 2 mps 712 mmHg 95%
06:00 +1°C° 0.2 mm 2 mps 712 mmHg 95%
07:00 +2°C° 0.1 mm 1 mps 712 mmHg 94%
08:00 +2°C° 0.1 mm 1 mps 713 mmHg 94%
09:00 +2°C° 0.1 mm 1 mps 713 mmHg 94%
10:00 +3°C° 0.2 mm 1 mps 713 mmHg 92%
11:00 +2°C° 0.2 mm 2 mps 713 mmHg 91%
12:00 +2°C° 0.2 mm 2 mps 713 mmHg 90%
13:00 +3°C° 0 mm 2 mps 713 mmHg 87%
14:00 +2°C° 0 mm 3 mps 712 mmHg 85%
15:00 +2°C° 0 mm 3 mps 712 mmHg 83%
16:00 +1°C° 0 mm 3 mps 713 mmHg 86%
17:00 +2°C° 0 mm 2 mps 713 mmHg 89%
18:00 +2°C° 0 mm 1 mps 713 mmHg 92%
19:00 +1°C° 0 mm 2 mps 713 mmHg 91%
20:00 +1°C° 0 mm 2 mps 713 mmHg 91%
21:00 +1°C° 0 mm 2 mps 713 mmHg 90%
22:00 +1°C° 0 mm 2 mps 713 mmHg 88%
23:00 +1°C° 0 mm 2 mps 713 mmHg 86%

30 January, Saturday

Time Temperature Precipitation Wind Pressure Humidity
00:00 -1°C° 0 mm 2 mps 713 mmHg 83%
01:00 -1°C° 0 mm 2 mps 713 mmHg 80%
02:00 +1°C° 0 mm 1 mps 712 mmHg 77%
03:00 +1°C° 0 mm 1 mps 712 mmHg 73%
04:00 +2°C° 0 mm 1 mps 712 mmHg 71%
05:00 +2°C° 0 mm 1 mps 712 mmHg 68%
06:00 +2°C° 0 mm 1 mps 712 mmHg 65%
07:00 +3°C° 0 mm 1 mps 712 mmHg 63%
08:00 +3°C° 0 mm 1 mps 712 mmHg 61%
09:00 +3°C° 0 mm 0 mps 712 mmHg 60%
10:00 +5°C° 0 mm 1 mps 712 mmHg 59%
11:00 +6°C° 0 mm 1 mps 711 mmHg 57%
12:00 +6°C° 0 mm 2 mps 711 mmHg 56%
13:00 +6°C° 0 mm 2 mps 711 mmHg 58%
14:00 +6°C° 0 mm 2 mps 710 mmHg 60%
15:00 +6°C° 0 mm 2 mps 710 mmHg 62%
16:00 +5°C° 0 mm 2 mps 710 mmHg 66%
17:00 +4°C° 0 mm 2 mps 710 mmHg 70%
18:00 +3°C° 0 mm 2 mps 710 mmHg 73%
19:00 +2°C° 0 mm 2 mps 709 mmHg 73%
20:00 +1°C° 0 mm 3 mps 709 mmHg 74%
21:00 +1°C° 0 mm 3 mps 709 mmHg 74%
22:00 +2°C° 0 mm 2 mps 708 mmHg 73%
23:00 +2°C° 0 mm 2 mps 708 mmHg 73%

31 January, Sunday

Time Temperature Precipitation Wind Pressure Humidity
00:00 +2°C° 0 mm 2 mps 708 mmHg 73%
01:00 +3°C° 0 mm 1 mps 708 mmHg 70%
02:00 +3°C° 0 mm 1 mps 708 mmHg 68%
03:00 +3°C° 0 mm 1 mps 708 mmHg 66%
04:00 +4°C° 0 mm 1 mps 709 mmHg 64%
05:00 +4°C° 0 mm 1 mps 709 mmHg 62%
06:00 +4°C° 0 mm 1 mps 709 mmHg 61%
07:00 +4°C° 0 mm 1 mps 710 mmHg 60%
08:00 +5°C° 0 mm 1 mps 711 mmHg 60%
09:00 +4°C° 0 mm 2 mps 712 mmHg 59%
10:00 +6°C° 0 mm 1 mps 712 mmHg 57%
11:00 +7°C° 0 mm 1 mps 713 mmHg 56%
12:00 +8°C° 0 mm 1 mps 713 mmHg 54%
13:00 +9°C° 0 mm 1 mps 713 mmHg 56%
14:00 +9°C° 0 mm 1 mps 714 mmHg 58%
15:00 +8°C° 0 mm 2 mps 714 mmHg 59%
16:00 +7°C° 0 mm 2 mps 714 mmHg 65%
17:00 +6°C° 0 mm 2 mps 715 mmHg 70%
18:00 +4°C° 0 mm 2 mps 715 mmHg 76%
19:00 +4°C° 0 mm 2 mps 715 mmHg 77%
20:00 +4°C° 0 mm 2 mps 716 mmHg 77%
21:00 +4°C° 0 mm 2 mps 716 mmHg 78%
22:00 +3°C° 0 mm 2 mps 716 mmHg 76%
23:00 +3°C° 0 mm 2 mps 715 mmHg 74%
Show more